NOAA 16 DEB, 41422

Orbit data source: Space-Track

NOAA 16 DEB, 41422 is space debris in SSO originally from a launch on Thu, 21 Sep 2000 UTC launched from the Air Force Western Test Range (AFWTR). Debris objects in space refer to the collection of defunct objects orbiting the Earth. Examples of debris include non-operational satellites, rocket bodies, and fragments generated from explosions, collisions, or faulty payload assembly.

Loading next visibility...
Identifier
41422, 2000-055LB
Orbit
SSO
Country
Flag of USUS
Related business
Manufacturer
Unknown
Mission
Spacecraft
Bus & Motor
Unknown
Mass
Unknown
Launch date (UTC)
2000-09-21 (25 years ago)
Launch vehicle
Unknown
Launch site
Air Force Western Test Range (AFWTR)
Object type
Payload
Rocket body
Debris
Shape & HBR
Unknown shape, 0.1 m
Radar Cross Section
Small (<0.1 m²)

Expand to show TLE details & history
Last TLE update: 5 days ago

TLE from 5 days ago
0 NOAA 16 DEB
1 41422U 00055LB  25348.05654779  .00004761  00000-0  20031-2 0  9994
2 41422  98.7199  61.5980 0012861   0.7138 359.4058 14.26199695507811
Epoch: 2025-12-14T01:21Z
TLE epoch observation values (Epoch: 2025-12-14T01:21:25.729Z)
Latitude
-0°
Longitude
-41.73415°
Altitude
798.146 km
Speed
7.459 km/s
True Right ascension
04h 06m 23s
True Declination
0° 00' 00"
Sunlit
Object was in full shadow at epoch
Visualization orbit readout
Latitude
Unknown
Longitude
Unknown
Altitude
Unknown
Speed
Unknown
Apparent Right ascension
Unknown
Apparent Declination
Unknown
Sunlit
N/A
Visualization observer readout
Local Sidereal Time
12:57:19
Azimuth
Unknown
Elevation
Unknown
Doppler factor
Unknown
Orbital elements
Apogee altitude
810.847 km
Perigee altitude
792.379 km
Semi-major axis
7,179.75 km
Eccentricity
0.00129
Inclination
98.7199°
RAAN
61.598°
Arg. of periapsis
0.7138°
True anomaly
359.40427°
Mean anomaly
359.4058°
Eccentric anomaly
359.40503°
Mean motion
3.56763 °/min
Orbital period
100.91 mins
BSTAR
0.0020031
Loading maneuver chart data...
Computing Atmospheric mass density...
Loading historical data...
Loading historical data...
Loading historical data...
Loading historical data...
Loading historical data...
Loading historical data...
Loading historical data...

Documentation

Showing up to 5 results
|